This demonstration page uses our WeatherBlox Daily Observations layout. Learn more.

38.88101, -77.10428

Hourly Observations for April 28, 2020

Temp ( °F °C ) Dew Point ( °F °C ) Humidity (%) Winds ( mph kmh ) Pressure ( in mb ) Visibility ( mi km ) Precip ( " mm )
12:52 am 00:52 Partly Cloudy 49 9.4 37 2.8 64 64 N 3 6 30.17 1022 10 16.0934 0 0
1:52 am 01:52 Cloudy 47 8.3 37 2.8 69 69 N 6 9 30.17 1022 10 16.0934 0 0
2:52 am 02:52 Mostly Cloudy 48 8.9 35 1.7 61 61 NNW 5 7 30.19 1022 10 16.0934 0 0
3:52 am 03:52 Mostly Cloudy 46 7.8 39 3.9 77 77 Calm 30.18 1022 10 16.0934 0 0
4:52 am 04:52 Cloudy 45 7.2 41 5 86 86 Calm 30.18 1022 10 16.0934 0 0
5:52 am 05:52 Cloudy 47 8.3 40 4.4 77 77 Calm 30.18 1022 10 16.0934 0 0
6:52 am 06:52 Mostly Cloudy 48 8.9 42 5.6 80 80 SW 5 7 30.19 1022 10 16.0934 0 0
7:52 am 07:52 Cloudy 49 9.4 42 5.6 77 77 SSW 6 9 30.2 1023 10 16.0934 0 0
8:52 am 08:52 Cloudy 50 10 41 5 71 71 S 7 11 30.22 1023 10 16.0934 0 0
9:52 am 09:52 Cloudy 52 11.1 41 5 66 66 S 9 15 30.21 1023 10 16.0934 0 0
10:52 am 10:52 Cloudy 54 12.2 42 5.6 64 64 S 6 9 30.22 1023 10 16.0934 0 0
11:52 am 11:52 Cloudy 56 13.3 40 4.4 55 55 S 8 13 30.23 1024 10 16.0934 0 0
12:23 pm 12:23 Cloudy with Light Rain 57 13.9 41 5 55 55 S 9 15 30.21 1023 10 16.0934 0.001 0.001
12:52 pm 12:52 Cloudy with Light Rain 55 12.8 42 5.6 62 62 SSW 12 19 30.19 1022 10 16.0934 0.001 0.001
1:52 pm 13:52 Cloudy with Light Rain 54 12.2 45 7.2 72 72 S 5 7 30.16 1021 10 16.0934 0.01 0.254
2:52 pm 14:52 Cloudy with Light Rain 54 12.2 46 7.8 75 75 S 6 9 30.16 1021 10 16.0934 0.01 0.254
3:52 pm 15:52 Cloudy 54 12.2 47 8.3 77 77 ESE 5 7 30.14 1021 10 16.0934 0.001 0.001
4:52 pm 16:52 Cloudy 54 12.2 46 7.8 75 75 S 7 11 30.13 1020 10 16.0934 0 0
5:52 pm 17:52 Cloudy with Light Rain 54 12.2 47 8.3 77 77 S 8 13 30.13 1020 10 16.0934 0.001 0.001
6:52 pm 18:52 Cloudy 54 12.2 46 7.8 75 75 Calm 30.11 1020 10 16.0934 0.001 0.001
7:52 pm 19:52 Cloudy 54 12.2 46 7.8 75 75 E 3 6 30.12 1020 10 16.0934 0.001 0.001
8:52 pm 20:52 Cloudy 53 11.7 47 8.3 80 80 SSE 6 9 30.12 1020 10 16.0934 0 0
9:52 pm 21:52 Cloudy 53 11.7 47 8.3 80 80 E 3 6 30.13 1020 10 16.0934 0 0
10:52 pm 22:52 Mostly Cloudy 53 11.7 46 7.8 77 77 SE 3 6 30.11 1020 10 16.0934 0 0
11:52 pm 23:52 Partly Cloudy 52 11.1 46 7.8 80 80 E 3 6 30.11 1020 10 16.0934 0 0

Powered by AerisWeather